| time (UTC) | temp F | wind direction | speed MPH | gust MPH | rain 1hr in | rain 24hr in | rain mn in | humidity % | barometer mb |
| 20260502223059 | 46 | 241 | 7.0 | 10.0 | 0.00 | 0.00 | 0.00 | 51 | 1015.0 |
| 20260502221546 | 45 | 248 | 7.0 | 11.0 | 0.00 | 0.00 | 0.00 | 50 | 1015.1 |
| 20260502220050 | 46 | 246 | 10.0 | 13.0 | 0.00 | 0.00 | 0.00 | 48 | 1015.2 |
| 20260502214546 | 46 | 245 | 10.0 | 13.0 | 0.00 | 0.00 | 0.00 | 47 | 1015.3 |
| 20260502213046 | 45 | 246 | 10.0 | 14.0 | 0.00 | 0.00 | 0.00 | 48 | 1015.4 |
| 20260502211541 | 45 | 257 | 11.0 | 14.0 | 0.00 | 0.00 | 0.00 | 48 | 1015.5 |
| 20260502210040 | 45 | 245 | 11.0 | 14.0 | 0.00 | 0.00 | 0.00 | 46 | 1015.6 |
| 20260502204537 | 44 | 247 | 11.0 | 14.0 | 0.00 | 0.00 | 0.00 | 46 | 1015.7 |
| 20260502203041 | 44 | 266 | 10.0 | 15.0 | 0.00 | 0.00 | 0.00 | 50 | 1015.8 |
| 20260502201538 | 44 | 257 | 12.0 | 17.0 | 0.00 | 0.00 | 0.00 | 46 | 1016.0 |
| 20260502200031 | 44 | 248 | 12.0 | 17.0 | 0.00 | 0.00 | 0.00 | 47 | 1016.2 |
| 20260502194527 | 43 | 250 | 13.0 | 19.0 | 0.00 | 0.00 | 0.00 | 51 | 1016.4 |
| 20260502193024 | 43 | 250 | 15.0 | 19.0 | 0.00 | 0.00 | 0.00 | 51 | 1016.6 |
| 20260502191528 | 43 | 239 | 14.0 | 17.0 | 0.00 | 0.00 | 0.00 | 56 | 1016.8 |
| 20260502190020 | 42 | 248 | 15.0 | 18.0 | 0.00 | 0.00 | 0.00 | 56 | 1016.9 |
| 20260502184519 | 42 | 255 | 14.0 | 18.0 | 0.00 | 0.00 | 0.00 | 60 | 1017.1 |
| 20260502183020 | 42 | 250 | 14.0 | 17.0 | 0.00 | 0.00 | 0.00 | 64 | 1017.1 |
| 20260502181515 | 42 | 250 | 14.0 | 19.0 | 0.00 | 0.00 | 0.00 | 68 | 1017.2 |
| 20260502163005 | 41 | 246 | 14.0 | 19.0 | 0.00 | 0.00 | 0.00 | 70 | 1017.4 |
| 20260502161504 | 41 | 249 | 14.0 | 18.0 | 0.00 | 0.00 | 0.00 | 73 | 1017.5 |
| 20260502151612 | 40 | 254 | 13.0 | 17.0 | 0.00 | 0.00 | 0.00 | 70 | 1017.8 |
| 20260502123001 | 36 | 250 | 0.0 | 7.0 | 0.00 | 0.00 | 0.00 | 86 | 1018.4 |
| 20260502121558 | 34 | 240 | 2.0 | 6.0 | 0.00 | 0.00 | 0.00 | 89 | 1018.5 |
| 20260502114552 | 33 | 259 | 2.0 | 6.0 | 0.00 | 0.00 | 0.00 | 92 | 1018.5 |
| 20260502113053 | 32 | 239 | 3.0 | 6.0 | 0.00 | 0.00 | 0.00 | 92 | 1018.4 |
| 20260502111546 | 28 | 255 | 0.0 | 2.0 | 0.00 | 0.00 | 0.00 | 92 | 1018.4 |
| 20260502110048 | 27 | 146 | 0.0 | 0.0 | 0.00 | 0.00 | 0.00 | 92 | 1018.3 |
| 20260502104545 | 28 | 185 | 0.0 | 1.0 | 0.00 | 0.00 | 0.00 | 90 | 1018.3 |
| 20260502103043 | 30 | 255 | 2.0 | 4.0 | 0.00 | 0.00 | 0.00 | 87 | 1018.3 |
| 20260502101559 | 25 | 247 | 0.0 | 3.0 | 0.00 | 0.00 | 0.00 | 92 | 1018.3 |
| 20260502071532 | 26 | 109 | 0.0 | 0.0 | 0.00 | 0.00 | 0.00 | 91 | 1017.9 |
| 20260502070052 | 27 | 109 | 0.0 | 0.0 | 0.00 | 0.00 | 0.00 | 91 | 1018.0 |
| 20260502064529 | 27 | 109 | 0.0 | 0.0 | 0.00 | 0.00 | 0.00 | 91 | 1018.1 |
| 20260502063032 | 27 | 110 | 0.0 | 0.0 | 0.00 | 0.00 | 0.00 | 91 | 1018.0 |
| 20260502061527 | 28 | 113 | 0.0 | 0.0 | 0.00 | 0.00 | 0.00 | 90 | 1018.1 |
| 20260502060036 | 27 | 113 | 0.0 | 0.0 | 0.00 | 0.00 | 0.00 | 91 | 1018.1 |
| 20260502054539 | 27 | 110 | 0.0 | 0.0 | 0.00 | 0.00 | 0.00 | 91 | 1018.2 |
| 20260502053024 | 28 | 110 | 0.0 | 0.0 | 0.00 | 0.00 | 0.00 | 90 | 1018.0 |
| 20260502051522 | 28 | 110 | 0.0 | 0.0 | 0.00 | 0.00 | 0.00 | 90 | 1018.1 |
| 20260502050023 | 29 | 110 | 0.0 | 0.0 | 0.00 | 0.00 | 0.00 | 90 | 1018.0 |
| 20260502044518 | 29 | 110 | 0.0 | 0.0 | 0.00 | 0.00 | 0.00 | 90 | 1017.9 |
| 20260502043017 | 29 | 110 | 0.0 | 0.0 | 0.00 | 0.00 | 0.00 | 89 | 1017.9 |
| 20260502041527 | 29 | 110 | 0.0 | 0.0 | 0.00 | 0.00 | 0.00 | 88 | 1017.9 |
| 20260502040021 | 31 | 110 | 0.0 | 0.0 | 0.00 | 0.00 | 0.00 | 87 | 1018.1 |
| 20260502034509 | 32 | 155 | 0.0 | 0.0 | 0.00 | 0.00 | 0.00 | 86 | 1018.0 |
| 20260502033011 | 33 | 213 | 0.0 | 0.0 | 0.00 | 0.00 | 0.00 | 84 | 1018.1 |
| 20260502031507 | 34 | 213 | 0.0 | 0.0 | 0.00 | 0.00 | 0.00 | 84 | 1018.0 |
| 20260502030007 | 35 | 201 | 0.0 | 0.0 | 0.00 | 0.00 | 0.00 | 83 | 1018.1 |
| 20260502024506 | 35 | 218 | 0.0 | 1.0 | 0.00 | 0.00 | 0.00 | 82 | 1018.1 |
| 20260502023017 | 36 | 214 | 0.0 | 0.0 | 0.00 | 0.00 | 0.00 | 82 | 1018.1 |
| 20260502021506 | 36 | 240 | 0.0 | 1.0 | 0.00 | 0.00 | 0.00 | 81 | 1018.2 |
| 20260502020004 | 37 | 245 | 0.0 | 2.0 | 0.00 | 0.00 | 0.00 | 80 | 1018.2 |
| 20260502014502 | 37 | 250 | 1.0 | 3.0 | 0.00 | 0.00 | 0.00 | 79 | 1018.0 |
| 20260502013002 | 38 | 241 | 0.0 | 4.0 | 0.00 | 0.00 | 0.00 | 80 | 1018.0 |
| 20260502011613 | 38 | 245 | 2.0 | 6.0 | 0.00 | 0.00 | 0.00 | 78 | 1017.8 |
| 20260502010100 | 38 | 255 | 4.0 | 8.0 | 0.00 | 0.00 | 0.00 | 80 | 1017.7 |
| 20260502004557 | 38 | 257 | 4.0 | 8.0 | 0.00 | 0.00 | 0.00 | 84 | 1017.6 |
| 20260502003056 | 38 | 268 | 5.0 | 11.0 | 0.00 | 0.00 | 0.00 | 82 | 1017.6 |
| 20260502001601 | 38 | 259 | 7.0 | 11.0 | 0.00 | 0.00 | 0.00 | 82 | 1017.4 |
| 20260502000106 | 38 | 254 | 8.0 | 10.0 | 0.00 | 0.00 | 0.00 | 82 | 1017.3 |
| 20260501234551 | 38 | 244 | 8.0 | 13.0 | 0.00 | 0.00 | 0.00 | 82 | 1017.2 |
| 20260501233104 | 39 | 253 | 8.0 | 13.0 | 0.00 | 0.00 | 0.00 | 83 | 1017.2 |
| 20260501231607 | 39 | 254 | 9.0 | 12.0 | 0.00 | 0.00 | 0.00 | 79 | 1017.1 |
| 20260501230114 | 39 | 251 | 11.0 | 14.0 | 0.00 | 0.00 | 0.00 | 80 | 1017.0 |
| 20260501224556 | 40 | 241 | 8.0 | 14.0 | 0.00 | 0.00 | 0.00 | 77 | 1017.0 |